User: anonymous   Login
Location: Washington
(38.8950°N, 77.0370°W)
Time: 12:24:14
(UTC-04:00)
Language:

IDEFIX/ARIANE 42P - Orbit

View from above orbital plane
View from above orbital plane
View from above satellite
View from above satellite

Ground track
Ground track

The orbit data is extracted from the following two-line orbital elements,

1 27422U 02021B   17147.85749045 -.00000028 +00000-0 +48595-5 0  9991
2 27422 098.2296 149.2582 0011112 300.3319 059.6765 14.29253634785660
Epoch (UTC): 27 May 2017 20:34:47
Eccentricity: 0.0011112
inclination: 98.2296°
perigee height: 786 km
apogee height: 802 km
right ascension of ascending node: 149.2582°
argument of perigee: 300.3319°
revolutions per day: 14.29253634
mean anomaly at epoch: 59.6765°
orbit number at epoch: 78566

The dashed part of the orbit path shows where the satellite is in the earth's shadow,  

DLR